| time (UTC) | temp F | wind direction | speed MPH | gust MPH | rain 1hr in | rain 24hr in | rain mn in | humidity % | barometer mb |
| 20260509180527 | 78 | 284 | 2.0 | 8.0 | 0.00 | 0.00 | 0.00 | 46 | 1014.5 |
| 20260509180024 | 79 | 312 | 2.0 | 8.0 | 0.00 | 0.00 | 0.00 | 44 | 1014.6 |
| 20260509175524 | 79 | 288 | 1.0 | 6.0 | 0.00 | 0.00 | 0.00 | 43 | 1014.6 |
| 20260509175022 | 79 | 275 | 1.0 | 4.0 | 0.00 | 0.00 | 0.00 | 41 | 1014.6 |
| 20260509174521 | 79 | 313 | 2.0 | 5.0 | 0.00 | 0.00 | 0.00 | 45 | 1014.6 |
| 20260509174020 | 78 | 333 | 3.0 | 5.0 | 0.00 | 0.00 | 0.00 | 43 | 1014.6 |
| 20260509173518 | 78 | 355 | 2.0 | 4.0 | 0.00 | 0.00 | 0.00 | 45 | 1014.6 |
| 20260509173016 | 78 | 346 | 1.0 | 3.0 | 0.00 | 0.00 | 0.00 | 43 | 1014.6 |
| 20260509172515 | 78 | 37 | 1.0 | 3.0 | 0.00 | 0.00 | 0.00 | 46 | 1014.5 |
| 20260509172014 | 77 | 38 | 2.0 | 4.0 | 0.00 | 0.00 | 0.00 | 47 | 1014.5 |
| 20260509171513 | 77 | 43 | 1.0 | 4.0 | 0.00 | 0.00 | 0.00 | 47 | 1014.6 |
| 20260509171011 | 77 | 49 | 1.0 | 4.0 | 0.00 | 0.00 | 0.00 | 48 | 1014.6 |
| 20260509170510 | 77 | 51 | 2.0 | 4.0 | 0.00 | 0.00 | 0.00 | 50 | 1014.6 |
| 20260509170009 | 76 | 55 | 1.0 | 3.0 | 0.00 | 0.00 | 0.00 | 48 | 1014.6 |
| 20260509165511 | 76 | 55 | 1.0 | 4.0 | 0.00 | 0.00 | 0.00 | 48 | 1014.7 |
| 20260509165010 | 75 | 75 | 1.0 | 4.0 | 0.00 | 0.00 | 0.00 | 51 | 1014.7 |
| 20260509164505 | 75 | 78 | 0.0 | 3.0 | 0.00 | 0.00 | 0.00 | 53 | 1014.8 |
| 20260509164007 | 74 | 80 | 0.0 | 3.0 | 0.00 | 0.00 | 0.00 | 47 | 1014.8 |
| 20260509163503 | 74 | 82 | 0.0 | 3.0 | 0.00 | 0.00 | 0.00 | 47 | 1014.7 |
| 20260509163001 | 74 | 134 | 1.0 | 3.0 | 0.00 | 0.00 | 0.00 | 52 | 1014.7 |
| 20260509162600 | 73 | 141 | 0.0 | 2.0 | 0.00 | 0.00 | 0.00 | 55 | 1014.7 |
| 20260509162101 | 73 | 141 | 0.0 | 1.0 | 0.00 | 0.00 | 0.00 | 57 | 1014.7 |
| 20260509161557 | 72 | 142 | 0.0 | 2.0 | 0.00 | 0.00 | 0.00 | 58 | 1014.8 |
| 20260509161055 | 71 | 141 | 0.0 | 2.0 | 0.00 | 0.00 | 0.00 | 58 | 1014.9 |
| 20260509160554 | 70 | 141 | 0.0 | 1.0 | 0.00 | 0.00 | 0.00 | 58 | 1014.9 |
| 20260509160057 | 69 | 141 | 0.0 | 2.0 | 0.00 | 0.00 | 0.00 | 60 | 1014.9 |
| 20260509155550 | 68 | 144 | 0.0 | 2.0 | 0.00 | 0.00 | 0.00 | 55 | 1014.9 |
| 20260509155052 | 68 | 144 | 0.0 | 0.0 | 0.00 | 0.00 | 0.00 | 56 | 1014.9 |
| 20260509154548 | 68 | 144 | 0.0 | 0.0 | 0.00 | 0.00 | 0.00 | 57 | 1014.8 |
| 20260509154049 | 68 | 115 | 0.0 | 0.0 | 0.00 | 0.00 | 0.00 | 57 | 1014.8 |
| 20260509153545 | 67 | 109 | 0.0 | 1.0 | 0.00 | 0.00 | 0.00 | 56 | 1014.8 |
| 20260509153047 | 67 | 88 | 0.0 | 2.0 | 0.00 | 0.00 | 0.00 | 55 | 1014.8 |
| 20260509152543 | 68 | 88 | 0.0 | 2.0 | 0.00 | 0.00 | 0.00 | 58 | 1014.8 |
| 20260509152041 | 68 | 85 | 0.0 | 2.0 | 0.00 | 0.00 | 0.00 | 58 | 1014.7 |
| 20260509151541 | 68 | 85 | 1.0 | 2.0 | 0.00 | 0.00 | 0.00 | 55 | 1014.6 |
| 20260509151038 | 67 | 91 | 0.0 | 2.0 | 0.00 | 0.00 | 0.00 | 58 | 1014.6 |
| 20260509150538 | 67 | 93 | 0.0 | 2.0 | 0.00 | 0.00 | 0.00 | 57 | 1014.6 |
| 20260509150037 | 66 | 94 | 0.0 | 2.0 | 0.00 | 0.00 | 0.00 | 57 | 1014.6 |
| 20260509145534 | 65 | 123 | 0.0 | 2.0 | 0.00 | 0.00 | 0.00 | 60 | 1014.6 |
| 20260509145033 | 65 | 123 | 0.0 | 1.0 | 0.00 | 0.00 | 0.00 | 62 | 1014.6 |
| 20260509144530 | 64 | 123 | 0.0 | 1.0 | 0.00 | 0.00 | 0.00 | 60 | 1014.6 |
| 20260509144029 | 64 | 123 | 0.0 | 1.0 | 0.00 | 0.00 | 0.00 | 58 | 1014.6 |
| 20260509143528 | 64 | 123 | 0.0 | 1.0 | 0.00 | 0.00 | 0.00 | 60 | 1014.5 |
| 20260509143029 | 64 | 123 | 0.0 | 1.0 | 0.00 | 0.00 | 0.00 | 59 | 1014.5 |
| 20260509142526 | 63 | 124 | 0.0 | 2.0 | 0.00 | 0.00 | 0.00 | 59 | 1014.5 |
| 20260509142024 | 63 | 124 | 0.0 | 6.0 | 0.00 | 0.00 | 0.00 | 57 | 1014.5 |
| 20260509141529 | 63 | 114 | 0.0 | 6.0 | 0.00 | 0.00 | 0.00 | 57 | 1014.4 |
| 20260509141020 | 62 | 88 | 1.0 | 4.0 | 0.00 | 0.00 | 0.00 | 59 | 1014.3 |
| 20260509140520 | 62 | 128 | 1.0 | 5.0 | 0.00 | 0.00 | 0.00 | 59 | 1014.3 |
| 20260509140019 | 62 | 78 | 2.0 | 7.0 | 0.00 | 0.00 | 0.00 | 57 | 1014.2 |
| 20260509135516 | 62 | 38 | 1.0 | 7.0 | 0.00 | 0.00 | 0.00 | 58 | 1014.2 |
| 20260509135015 | 61 | 48 | 2.0 | 8.0 | 0.00 | 0.00 | 0.00 | 59 | 1014.2 |
| 20260509134513 | 61 | 76 | 2.0 | 8.0 | 0.00 | 0.00 | 0.00 | 60 | 1014.1 |
| 20260509134013 | 60 | 130 | 1.0 | 6.0 | 0.00 | 0.00 | 0.00 | 59 | 1014.2 |
| 20260509133510 | 60 | 86 | 2.0 | 6.0 | 0.00 | 0.00 | 0.00 | 60 | 1014.2 |
| 20260509133009 | 60 | 107 | 1.0 | 6.0 | 0.00 | 0.00 | 0.00 | 59 | 1014.2 |
| 20260509132508 | 60 | 107 | 2.0 | 6.0 | 0.00 | 0.00 | 0.00 | 60 | 1014.2 |
| 20260509132006 | 60 | 103 | 2.0 | 6.0 | 0.00 | 0.00 | 0.00 | 60 | 1014.2 |
| 20260509131505 | 60 | 100 | 2.0 | 8.0 | 0.00 | 0.00 | 0.00 | 60 | 1014.2 |
| 20260509131008 | 59 | 71 | 4.0 | 8.0 | 0.00 | 0.00 | 0.00 | 61 | 1014.1 |
| 20260509130505 | 59 | 84 | 3.0 | 6.0 | 0.00 | 0.00 | 0.00 | 61 | 1014.2 |
| 20260509130007 | 60 | 91 | 2.0 | 7.0 | 0.00 | 0.00 | 0.00 | 61 | 1014.1 |
| 20260509125503 | 60 | 98 | 2.0 | 7.0 | 0.00 | 0.00 | 0.00 | 61 | 1014.1 |
| 20260509125002 | 60 | 92 | 3.0 | 7.0 | 0.00 | 0.00 | 0.00 | 61 | 1014.1 |
| 20260509124502 | 60 | 93 | 3.0 | 6.0 | 0.00 | 0.00 | 0.00 | 61 | 1014.2 |
| 20260509124003 | 60 | 94 | 3.0 | 6.0 | 0.00 | 0.00 | 0.00 | 62 | 1014.1 |
| 20260509123502 | 60 | 84 | 3.0 | 7.0 | 0.00 | 0.00 | 0.00 | 62 | 1014.1 |
| 20260509123101 | 60 | 99 | 3.0 | 7.0 | 0.00 | 0.00 | 0.00 | 62 | 1014.1 |
| 20260509122600 | 60 | 88 | 3.0 | 6.0 | 0.00 | 0.00 | 0.00 | 62 | 1014.1 |
| 20260509122059 | 60 | 92 | 2.0 | 5.0 | 0.00 | 0.00 | 0.00 | 63 | 1014.1 |
| 20260509121600 | 60 | 89 | 2.0 | 4.0 | 0.00 | 0.00 | 0.00 | 63 | 1014.1 |
| 20260509121100 | 60 | 96 | 2.0 | 4.0 | 0.00 | 0.00 | 0.00 | 63 | 1014.1 |
| 20260509120559 | 60 | 96 | 1.0 | 4.0 | 0.00 | 0.00 | 0.00 | 63 | 1014.1 |
| 20260509120059 | 60 | 108 | 1.0 | 4.0 | 0.00 | 0.00 | 0.00 | 63 | 1014.1 |
| 20260509115558 | 60 | 108 | 1.0 | 4.0 | 0.00 | 0.00 | 0.00 | 63 | 1014.2 |
| 20260509115058 | 60 | 111 | 1.0 | 3.0 | 0.00 | 0.00 | 0.00 | 63 | 1014.2 |
| 20260509114601 | 60 | 105 | 0.0 | 4.0 | 0.00 | 0.00 | 0.00 | 64 | 1014.2 |
| 20260509114057 | 59 | 96 | 1.0 | 4.0 | 0.00 | 0.00 | 0.00 | 64 | 1014.2 |
| 20260509113556 | 59 | 96 | 2.0 | 4.0 | 0.00 | 0.00 | 0.00 | 64 | 1014.1 |
| 20260509113058 | 59 | 86 | 0.0 | 4.0 | 0.00 | 0.00 | 0.00 | 64 | 1014.2 |
| 20260509112556 | 59 | 84 | 1.0 | 5.0 | 0.00 | 0.00 | 0.00 | 64 | 1014.2 |
| 20260509112056 | 59 | 86 | 0.0 | 5.0 | 0.00 | 0.00 | 0.00 | 65 | 1014.2 |
| 20260509111557 | 59 | 97 | 1.0 | 5.0 | 0.00 | 0.00 | 0.00 | 65 | 1014.2 |
| 20260509111056 | 59 | 98 | 1.0 | 6.0 | 0.00 | 0.00 | 0.00 | 66 | 1014.1 |
| 20260509110557 | 59 | 86 | 3.0 | 5.0 | 0.00 | 0.00 | 0.00 | 65 | 1014.1 |
| 20260509110058 | 59 | 80 | 2.0 | 5.0 | 0.00 | 0.00 | 0.00 | 66 | 1014.3 |
| 20260509105553 | 60 | 71 | 2.0 | 5.0 | 0.00 | 0.00 | 0.00 | 65 | 1014.2 |
| 20260509105053 | 60 | 82 | 2.0 | 8.0 | 0.00 | 0.00 | 0.00 | 65 | 1014.2 |
| 20260509104555 | 60 | 79 | 3.0 | 8.0 | 0.00 | 0.00 | 0.00 | 65 | 1014.2 |
| 20260509104053 | 60 | 66 | 1.0 | 6.0 | 0.00 | 0.00 | 0.00 | 66 | 1014.2 |
| 20260509103552 | 60 | 82 | 2.0 | 6.0 | 0.00 | 0.00 | 0.00 | 65 | 1014.3 |
| 20260509103052 | 60 | 79 | 2.0 | 5.0 | 0.00 | 0.00 | 0.00 | 65 | 1014.2 |
| 20260509102552 | 60 | 85 | 2.0 | 5.0 | 0.00 | 0.00 | 0.00 | 66 | 1014.3 |
| 20260509102051 | 60 | 80 | 2.0 | 6.0 | 0.00 | 0.00 | 0.00 | 66 | 1014.3 |
| 20260509101552 | 60 | 89 | 0.0 | 3.0 | 0.00 | 0.00 | 0.00 | 66 | 1014.3 |
| 20260509101049 | 60 | 87 | 0.0 | 3.0 | 0.00 | 0.00 | 0.00 | 66 | 1014.4 |
| 20260509100549 | 60 | 85 | 1.0 | 6.0 | 0.00 | 0.00 | 0.00 | 66 | 1014.5 |
| 20260509095550 | 60 | 81 | 4.0 | 7.0 | 0.00 | 0.00 | 0.00 | 65 | 1014.3 |
| 20260509095049 | 60 | 97 | 0.0 | 3.0 | 0.00 | 0.00 | 0.00 | 66 | 1014.4 |
| 20260509094548 | 60 | 98 | 0.0 | 6.0 | 0.00 | 0.00 | 0.00 | 66 | 1014.4 |
| 20260509094048 | 60 | 88 | 2.0 | 6.0 | 0.00 | 0.00 | 0.00 | 66 | 1014.4 |
| 20260509093548 | 60 | 69 | 2.0 | 5.0 | 0.00 | 0.00 | 0.00 | 66 | 1014.5 |
| 20260509093048 | 60 | 71 | 3.0 | 9.0 | 0.00 | 0.00 | 0.00 | 66 | 1014.5 |
| 20260509092546 | 60 | 86 | 4.0 | 9.0 | 0.00 | 0.00 | 0.00 | 66 | 1014.5 |
| 20260509092046 | 60 | 79 | 3.0 | 7.0 | 0.00 | 0.00 | 0.00 | 67 | 1014.5 |
| 20260509091549 | 60 | 84 | 4.0 | 7.0 | 0.00 | 0.00 | 0.00 | 66 | 1014.5 |
| 20260509091046 | 60 | 76 | 3.0 | 6.0 | 0.00 | 0.00 | 0.00 | 67 | 1014.6 |
| 20260509090548 | 60 | 79 | 3.0 | 8.0 | 0.00 | 0.00 | 0.00 | 67 | 1014.6 |
| 20260509090045 | 60 | 76 | 3.0 | 8.0 | 0.00 | 0.00 | 0.00 | 67 | 1014.6 |
| 20260509085544 | 60 | 111 | 3.0 | 7.0 | 0.00 | 0.00 | 0.00 | 67 | 1014.6 |
| 20260509085044 | 60 | 103 | 2.0 | 7.0 | 0.00 | 0.00 | 0.00 | 67 | 1014.6 |
| 20260509084548 | 61 | 85 | 3.0 | 7.0 | 0.00 | 0.00 | 0.00 | 67 | 1014.6 |
| 20260509084043 | 61 | 92 | 3.0 | 7.0 | 0.00 | 0.00 | 0.00 | 66 | 1014.7 |
| 20260509083541 | 61 | 100 | 3.0 | 7.0 | 0.00 | 0.00 | 0.00 | 66 | 1014.7 |
| 20260509083041 | 61 | 90 | 3.0 | 6.0 | 0.00 | 0.00 | 0.00 | 65 | 1014.7 |
| 20260509082541 | 61 | 94 | 3.0 | 7.0 | 0.00 | 0.00 | 0.00 | 65 | 1014.7 |
| 20260509082041 | 62 | 115 | 3.0 | 7.0 | 0.00 | 0.00 | 0.00 | 65 | 1014.8 |
| 20260509081540 | 62 | 101 | 3.0 | 7.0 | 0.00 | 0.00 | 0.00 | 65 | 1014.9 |
| 20260509081038 | 62 | 105 | 3.0 | 7.0 | 0.00 | 0.00 | 0.00 | 65 | 1014.9 |
| 20260509080538 | 62 | 97 | 2.0 | 5.0 | 0.00 | 0.00 | 0.00 | 65 | 1014.9 |
| 20260509080054 | 62 | 94 | 1.0 | 7.0 | 0.00 | 0.00 | 0.00 | 65 | 1015.0 |
| 20260509075540 | 62 | 78 | 2.0 | 9.0 | 0.00 | 0.00 | 0.00 | 65 | 1015.0 |
| 20260509075036 | 62 | 64 | 5.0 | 10.0 | 0.00 | 0.00 | 0.00 | 66 | 1015.0 |
| 20260509074535 | 62 | 76 | 5.0 | 10.0 | 0.00 | 0.00 | 0.00 | 66 | 1015.0 |
| 20260509074034 | 61 | 83 | 5.0 | 8.0 | 0.00 | 0.00 | 0.00 | 66 | 1015.0 |
| 20260509073534 | 62 | 92 | 2.0 | 7.0 | 0.00 | 0.00 | 0.00 | 66 | 1015.0 |
| 20260509073101 | 62 | 105 | 4.0 | 7.0 | 0.00 | 0.00 | 0.00 | 66 | 1015.0 |
| 20260509072531 | 62 | 86 | 3.0 | 9.0 | 0.00 | 0.00 | 0.00 | 67 | 1015.0 |
| 20260509072030 | 61 | 88 | 5.0 | 11.0 | 0.00 | 0.00 | 0.00 | 67 | 1015.0 |
| 20260509071529 | 61 | 65 | 4.0 | 9.0 | 0.00 | 0.00 | 0.00 | 68 | 1015.0 |
| 20260509071028 | 61 | 70 | 3.0 | 6.0 | 0.00 | 0.00 | 0.00 | 68 | 1015.0 |
| 20260509070527 | 61 | 75 | 2.0 | 6.0 | 0.00 | 0.00 | 0.00 | 68 | 1015.0 |
| 20260509070026 | 61 | 74 | 4.0 | 6.0 | 0.00 | 0.00 | 0.00 | 68 | 1015.0 |
| 20260509065530 | 62 | 91 | 3.0 | 6.0 | 0.00 | 0.00 | 0.00 | 67 | 1015.1 |
| 20260509065026 | 62 | 83 | 2.0 | 6.0 | 0.00 | 0.00 | 0.00 | 67 | 1015.1 |
| 20260509064526 | 62 | 82 | 2.0 | 6.0 | 0.00 | 0.00 | 0.00 | 66 | 1015.2 |
| 20260509064026 | 62 | 82 | 1.0 | 4.0 | 0.00 | 0.00 | 0.00 | 66 | 1015.2 |
| 20260509063528 | 62 | 96 | 1.0 | 3.0 | 0.00 | 0.00 | 0.00 | 66 | 1015.2 |
| 20260509063030 | 62 | 96 | 1.0 | 4.0 | 0.00 | 0.00 | 0.00 | 66 | 1015.2 |
| 20260509062525 | 63 | 102 | 2.0 | 6.0 | 0.00 | 0.00 | 0.00 | 65 | 1015.2 |
| 20260509062026 | 63 | 98 | 2.0 | 6.0 | 0.00 | 0.00 | 0.00 | 65 | 1015.2 |
| 20260509061525 | 63 | 93 | 2.0 | 6.0 | 0.00 | 0.00 | 0.00 | 64 | 1015.2 |
| 20260509061024 | 63 | 92 | 2.0 | 7.0 | 0.00 | 0.00 | 0.00 | 63 | 1015.2 |
| 20260509060524 | 63 | 101 | 2.0 | 4.0 | 0.00 | 0.00 | 0.00 | 63 | 1015.2 |
| 20260509060026 | 63 | 109 | 2.0 | 4.0 | 0.00 | 0.00 | 0.00 | 61 | 1015.2 |
| 20260509055524 | 64 | 119 | 1.0 | 4.0 | 0.00 | 0.00 | 0.00 | 61 | 1015.2 |
| 20260509055027 | 64 | 109 | 2.0 | 4.0 | 0.00 | 0.00 | 0.00 | 60 | 1015.2 |
| 20260509054531 | 64 | 135 | 1.0 | 3.0 | 0.00 | 0.00 | 0.00 | 59 | 1015.2 |
| 20260509054023 | 64 | 137 | 0.0 | 3.0 | 0.00 | 0.00 | 0.00 | 58 | 1015.2 |
| 20260509053523 | 64 | 137 | 1.0 | 3.0 | 0.00 | 0.00 | 0.00 | 58 | 1015.2 |
| 20260509053023 | 64 | 137 | 1.0 | 3.0 | 0.00 | 0.00 | 0.00 | 59 | 1015.2 |
| 20260509052523 | 64 | 137 | 1.0 | 3.0 | 0.00 | 0.00 | 0.00 | 59 | 1015.2 |
| 20260509052022 | 64 | 140 | 0.0 | 2.0 | 0.00 | 0.00 | 0.00 | 58 | 1015.2 |
| 20260509051523 | 64 | 140 | 1.0 | 2.0 | 0.00 | 0.00 | 0.00 | 59 | 1015.2 |
| 20260509051023 | 64 | 233 | 0.0 | 0.0 | 0.00 | 0.00 | 0.00 | 58 | 1015.2 |
| 20260509050522 | 65 | 234 | 0.0 | 1.0 | 0.00 | 0.00 | 0.00 | 58 | 1015.2 |
| 20260509050033 | 65 | 234 | 0.0 | 2.0 | 0.00 | 0.00 | 0.00 | 58 | 1015.2 |
| 20260509045522 | 65 | 235 | 0.0 | 2.0 | 0.00 | 0.00 | 0.00 | 58 | 1015.2 |
| 20260509045024 | 65 | 235 | 0.0 | 0.0 | 0.00 | 0.00 | 0.00 | 58 | 1015.2 |
| 20260509044522 | 65 | 236 | 0.0 | 0.0 | 0.00 | 0.00 | 0.00 | 58 | 1015.2 |
| 20260509044022 | 65 | 235 | 0.0 | 0.0 | 0.00 | 0.00 | 0.00 | 58 | 1015.1 |
| 20260509043524 | 65 | 236 | 0.0 | 2.0 | 0.00 | 0.00 | 0.00 | 57 | 1015.2 |
| 20260509043037 | 65 | 236 | 0.0 | 3.0 | 0.00 | 0.00 | 0.00 | 57 | 1015.1 |
| 20260509042522 | 65 | 235 | 1.0 | 3.0 | 0.00 | 0.00 | 0.00 | 57 | 1015.1 |
| 20260509042021 | 65 | 248 | 2.0 | 3.0 | 0.00 | 0.00 | 0.00 | 56 | 1015.0 |
| 20260509041521 | 65 | 250 | 1.0 | 3.0 | 0.00 | 0.00 | 0.00 | 57 | 1015.0 |
| 20260509041021 | 66 | 250 | 1.0 | 3.0 | 0.00 | 0.00 | 0.00 | 58 | 1014.9 |
| 20260509040520 | 66 | 250 | 0.0 | 2.0 | 0.00 | 0.00 | 0.00 | 58 | 1014.9 |
| 20260509040020 | 66 | 250 | 0.0 | 1.0 | 0.00 | 0.00 | 0.00 | 57 | 1014.9 |
| 20260509035520 | 66 | 250 | 0.0 | 1.0 | 0.00 | 0.00 | 0.00 | 56 | 1014.9 |
| 20260509035020 | 66 | 250 | 0.0 | 2.0 | 0.00 | 0.00 | 0.00 | 56 | 1014.9 |
| 20260509034519 | 66 | 250 | 1.0 | 2.0 | 0.00 | 0.00 | 0.00 | 55 | 1014.8 |
| 20260509034019 | 67 | 251 | 0.0 | 2.0 | 0.00 | 0.00 | 0.00 | 54 | 1014.9 |
| 20260509033520 | 67 | 251 | 0.0 | 2.0 | 0.00 | 0.00 | 0.00 | 53 | 1014.8 |
| 20260509033022 | 67 | 250 | 0.0 | 2.0 | 0.00 | 0.00 | 0.00 | 51 | 1014.8 |
| 20260509032519 | 67 | 250 | 0.0 | 2.0 | 0.00 | 0.00 | 0.00 | 50 | 1014.9 |
| 20260509032119 | 67 | 250 | 1.0 | 2.0 | 0.00 | 0.00 | 0.00 | 49 | 1014.8 |
| 20260509031520 | 68 | 250 | 1.0 | 2.0 | 0.00 | 0.00 | 0.00 | 48 | 1014.8 |
| 20260509031019 | 68 | 250 | 1.0 | 2.0 | 0.00 | 0.00 | 0.00 | 48 | 1014.8 |
| 20260509030521 | 68 | 250 | 1.0 | 3.0 | 0.00 | 0.00 | 0.00 | 47 | 1014.8 |
| 20260509030019 | 68 | 250 | 2.0 | 4.0 | 0.00 | 0.00 | 0.00 | 47 | 1014.8 |
| 20260509025517 | 69 | 260 | 2.0 | 4.0 | 0.00 | 0.00 | 0.00 | 47 | 1014.8 |
| 20260509025017 | 69 | 259 | 2.0 | 4.0 | 0.00 | 0.00 | 0.00 | 47 | 1014.8 |
| 20260509024517 | 70 | 259 | 2.0 | 6.0 | 0.00 | 0.00 | 0.00 | 48 | 1014.8 |
| 20260509024017 | 70 | 266 | 2.0 | 6.0 | 0.00 | 0.00 | 0.00 | 46 | 1014.7 |
| 20260509023516 | 70 | 251 | 2.0 | 4.0 | 0.00 | 0.00 | 0.00 | 48 | 1014.7 |
| 20260509023022 | 71 | 253 | 2.0 | 5.0 | 0.00 | 0.00 | 0.00 | 47 | 1014.6 |
| 20260509022518 | 71 | 286 | 2.0 | 5.0 | 0.00 | 0.00 | 0.00 | 48 | 1014.7 |
| 20260509022016 | 71 | 284 | 3.0 | 5.0 | 0.00 | 0.00 | 0.00 | 47 | 1014.6 |
| 20260509021520 | 71 | 285 | 2.0 | 5.0 | 0.00 | 0.00 | 0.00 | 47 | 1014.7 |
| 20260509021019 | 72 | 279 | 2.0 | 6.0 | 0.00 | 0.00 | 0.00 | 48 | 1014.7 |
| 20260509020517 | 72 | 283 | 3.0 | 6.0 | 0.00 | 0.00 | 0.00 | 48 | 1014.7 |
| 20260509020013 | 72 | 265 | 1.0 | 5.0 | 0.00 | 0.00 | 0.00 | 51 | 1014.7 |
| 20260509015517 | 72 | 286 | 2.0 | 10.0 | 0.00 | 0.00 | 0.00 | 50 | 1014.6 |
| 20260509015012 | 73 | 284 | 4.0 | 10.0 | 0.00 | 0.00 | 0.00 | 48 | 1014.7 |
| 20260509014513 | 73 | 290 | 2.0 | 9.0 | 0.00 | 0.00 | 0.00 | 50 | 1014.7 |
| 20260509014014 | 73 | 290 | 3.0 | 9.0 | 0.00 | 0.00 | 0.00 | 50 | 1014.7 |
| 20260509013512 | 73 | 290 | 2.0 | 9.0 | 0.00 | 0.00 | 0.00 | 49 | 1014.7 |
| 20260509013032 | 73 | 283 | 2.0 | 8.0 | 0.00 | 0.00 | 0.00 | 49 | 1014.9 |
| 20260509012511 | 73 | 286 | 2.0 | 10.0 | 0.00 | 0.00 | 0.00 | 50 | 1014.9 |
| 20260509012011 | 74 | 284 | 4.0 | 10.0 | 0.00 | 0.00 | 0.00 | 50 | 1014.9 |
| 20260509011511 | 74 | 285 | 2.0 | 7.0 | 0.00 | 0.00 | 0.00 | 50 | 1014.9 |
| 20260509011010 | 74 | 255 | 2.0 | 10.0 | 0.00 | 0.00 | 0.00 | 50 | 1014.8 |
| 20260509010513 | 74 | 263 | 3.0 | 11.0 | 0.00 | 0.00 | 0.00 | 48 | 1014.8 |
| 20260509010012 | 74 | 260 | 3.0 | 11.0 | 0.00 | 0.00 | 0.00 | 49 | 1014.8 |
| 20260509005509 | 74 | 278 | 4.0 | 10.0 | 0.00 | 0.00 | 0.00 | 48 | 1015.0 |
| 20260509005008 | 75 | 284 | 3.0 | 8.0 | 0.00 | 0.00 | 0.00 | 48 | 1015.0 |
| 20260509004526 | 75 | 275 | 4.0 | 8.0 | 0.00 | 0.00 | 0.00 | 45 | 1015.0 |
| 20260509004008 | 75 | 259 | 3.0 | 10.0 | 0.00 | 0.00 | 0.00 | 44 | 1015.0 |
| 20260509003507 | 76 | 282 | 4.0 | 10.0 | 0.00 | 0.00 | 0.00 | 43 | 1015.2 |
| 20260509003007 | 76 | 247 | 3.0 | 8.0 | 0.00 | 0.00 | 0.00 | 42 | 1015.1 |
| 20260509002505 | 76 | 279 | 3.0 | 8.0 | 0.00 | 0.00 | 0.00 | 41 | 1015.1 |
| 20260509002006 | 76 | 279 | 2.0 | 9.0 | 0.00 | 0.00 | 0.00 | 38 | 1015.2 |
| 20260509001505 | 76 | 273 | 3.0 | 10.0 | 0.00 | 0.00 | 0.00 | 38 | 1015.3 |
| 20260509001006 | 76 | 273 | 2.0 | 10.0 | 0.00 | 0.00 | 0.00 | 41 | 1015.3 |
| 20260509000503 | 76 | 244 | 3.0 | 9.0 | 0.00 | 0.00 | 0.00 | 39 | 1015.2 |
| 20260509000003 | 77 | 286 | 4.0 | 10.0 | 0.00 | 0.00 | 0.00 | 38 | 1015.3 |
| 20260508235502 | 77 | 267 | 4.0 | 10.0 | 0.00 | 0.00 | 0.00 | 36 | 1015.3 |
| 20260508235002 | 77 | 269 | 2.0 | 10.0 | 0.00 | 0.00 | 0.00 | 36 | 1015.4 |
| 20260508234500 | 77 | 284 | 2.0 | 10.0 | 0.00 | 0.00 | 0.00 | 35 | 1015.4 |
| 20260508233600 | 77 | 291 | 2.0 | 8.0 | 0.00 | 0.00 | 0.00 | 36 | 1015.4 |
| 20260508233140 | 77 | 282 | 2.0 | 8.0 | 0.00 | 0.00 | 0.00 | 36 | 1015.4 |
| 20260508232559 | 77 | 246 | 3.0 | 9.0 | 0.00 | 0.00 | 0.00 | 38 | 1015.5 |
| 20260508232059 | 77 | 234 | 2.0 | 9.0 | 0.00 | 0.00 | 0.00 | 37 | 1015.4 |
| 20260508231603 | 78 | 274 | 3.0 | 9.0 | 0.00 | 0.00 | 0.00 | 38 | 1015.5 |
| 20260508231100 | 77 | 258 | 2.0 | 11.0 | 0.00 | 0.00 | 0.00 | 42 | 1015.6 |
| 20260508230558 | 78 | 281 | 4.0 | 15.0 | 0.00 | 0.00 | 0.00 | 40 | 1015.6 |
| 20260508230100 | 78 | 277 | 6.0 | 15.0 | 0.00 | 0.00 | 0.00 | 40 | 1015.6 |
| 20260508225556 | 78 | 295 | 5.0 | 12.0 | 0.00 | 0.00 | 0.00 | 43 | 1015.7 |
| 20260508225055 | 77 | 296 | 7.0 | 11.0 | 0.00 | 0.00 | 0.00 | 40 | 1015.7 |
| 20260508224557 | 77 | 281 | 3.0 | 9.0 | 0.00 | 0.00 | 0.00 | 42 | 1015.7 |
| 20260508224054 | 77 | 294 | 2.0 | 7.0 | 0.00 | 0.00 | 0.00 | 43 | 1015.7 |
| 20260508223556 | 77 | 243 | 2.0 | 9.0 | 0.00 | 0.00 | 0.00 | 43 | 1015.7 |
| 20260508223054 | 78 | 236 | 3.0 | 14.0 | 0.00 | 0.00 | 0.00 | 38 | 1015.8 |
| 20260508222552 | 78 | 281 | 5.0 | 10.0 | 0.00 | 0.00 | 0.00 | 37 | 1015.8 |
| 20260508222052 | 78 | 232 | 3.0 | 11.0 | 0.00 | 0.00 | 0.00 | 45 | 1015.8 |
| 20260508221552 | 78 | 287 | 6.0 | 11.0 | 0.00 | 0.00 | 0.00 | 41 | 1015.8 |
| 20260508221052 | 77 | 306 | 4.0 | 10.0 | 0.00 | 0.00 | 0.00 | 40 | 1015.9 |
| 20260508220551 | 77 | 289 | 4.0 | 10.0 | 0.00 | 0.00 | 0.00 | 43 | 1015.9 |
| 20260508220054 | 77 | 214 | 3.0 | 13.0 | 0.00 | 0.00 | 0.00 | 45 | 1016.1 |
| 20260508215549 | 77 | 281 | 4.0 | 13.0 | 0.00 | 0.00 | 0.00 | 41 | 1016.1 |
| 20260508215049 | 77 | 304 | 5.0 | 13.0 | 0.00 | 0.00 | 0.00 | 45 | 1016.2 |
| 20260508214550 | 77 | 298 | 4.0 | 10.0 | 0.00 | 0.00 | 0.00 | 42 | 1016.2 |
| 20260508214047 | 77 | 284 | 5.0 | 11.0 | 0.00 | 0.00 | 0.00 | 41 | 1016.3 |
| 20260508213546 | 77 | 289 | 4.0 | 11.0 | 0.00 | 0.00 | 0.00 | 41 | 1016.4 |
| 20260508213046 | 77 | 300 | 3.0 | 10.0 | 0.00 | 0.00 | 0.00 | 38 | 1016.4 |
| 20260508212546 | 77 | 271 | 5.0 | 12.0 | 0.00 | 0.00 | 0.00 | 37 | 1016.5 |
| 20260508212046 | 78 | 276 | 4.0 | 14.0 | 0.00 | 0.00 | 0.00 | 40 | 1016.5 |
| 20260508211546 | 78 | 284 | 7.0 | 14.0 | 0.00 | 0.00 | 0.00 | 36 | 1016.5 |
| 20260508211045 | 78 | 288 | 4.0 | 10.0 | 0.00 | 0.00 | 0.00 | 36 | 1016.5 |
| 20260508210545 | 78 | 286 | 3.0 | 9.0 | 0.00 | 0.00 | 0.00 | 39 | 1016.5 |
| 20260508205544 | 78 | 284 | 4.0 | 10.0 | 0.00 | 0.00 | 0.00 | 40 | 1016.5 |
| 20260508205045 | 78 | 293 | 3.0 | 10.0 | 0.00 | 0.00 | 0.00 | 42 | 1016.5 |
| 20260508204543 | 78 | 304 | 3.0 | 9.0 | 0.00 | 0.00 | 0.00 | 42 | 1016.5 |
| 20260508204043 | 78 | 261 | 4.0 | 10.0 | 0.00 | 0.00 | 0.00 | 40 | 1016.5 |
| 20260508203543 | 78 | 302 | 3.0 | 8.0 | 0.00 | 0.00 | 0.00 | 46 | 1016.5 |
| 20260508203046 | 78 | 277 | 3.0 | 11.0 | 0.00 | 0.00 | 0.00 | 43 | 1016.6 |
| 20260508202544 | 78 | 258 | 3.0 | 11.0 | 0.00 | 0.00 | 0.00 | 43 | 1016.6 |
| 20260508202043 | 78 | 300 | 4.0 | 11.0 | 0.00 | 0.00 | 0.00 | 44 | 1016.6 |
| 20260508201542 | 77 | 278 | 2.0 | 9.0 | 0.00 | 0.00 | 0.00 | 48 | 1016.6 |
| 20260508201042 | 77 | 254 | 3.0 | 9.0 | 0.00 | 0.00 | 0.00 | 50 | 1016.5 |
| 20260508200543 | 77 | 275 | 3.0 | 12.0 | 0.00 | 0.00 | 0.00 | 47 | 1016.6 |
| 20260508200047 | 77 | 302 | 4.0 | 12.0 | 0.00 | 0.00 | 0.00 | 47 | 1016.6 |
| 20260508195541 | 77 | 273 | 5.0 | 12.0 | 0.00 | 0.00 | 0.00 | 49 | 1016.6 |
| 20260508195041 | 77 | 300 | 2.0 | 7.0 | 0.00 | 0.00 | 0.00 | 51 | 1016.7 |
| 20260508194546 | 76 | 274 | 3.0 | 9.0 | 0.00 | 0.00 | 0.00 | 49 | 1016.7 |
| 20260508194039 | 76 | 285 | 4.0 | 9.0 | 0.00 | 0.00 | 0.00 | 48 | 1016.8 |
| 20260508193538 | 77 | 293 | 3.0 | 12.0 | 0.00 | 0.00 | 0.00 | 48 | 1016.8 |
| 20260508193042 | 77 | 267 | 4.0 | 10.0 | 0.00 | 0.00 | 0.00 | 47 | 1016.8 |
| 20260508192537 | 78 | 296 | 3.0 | 10.0 | 0.00 | 0.00 | 0.00 | 46 | 1016.9 |
| 20260508192037 | 78 | 267 | 4.0 | 10.0 | 0.00 | 0.00 | 0.00 | 46 | 1016.9 |
| 20260508191537 | 78 | 280 | 3.0 | 9.0 | 0.00 | 0.00 | 0.00 | 49 | 1016.9 |
| 20260508191037 | 78 | 250 | 3.0 | 9.0 | 0.00 | 0.00 | 0.00 | 44 | 1016.9 |
| 20260508190534 | 78 | 286 | 3.0 | 8.0 | 0.00 | 0.00 | 0.00 | 45 | 1017.0 |
| 20260508190047 | 79 | 319 | 4.0 | 8.0 | 0.00 | 0.00 | 0.00 | 44 | 1017.0 |
| 20260508185533 | 79 | 262 | 2.0 | 9.0 | 0.00 | 0.00 | 0.00 | 45 | 1017.1 |
| 20260508185031 | 79 | 281 | 4.0 | 9.0 | 0.00 | 0.00 | 0.00 | 45 | 1017.2 |
| 20260508184552 | 79 | 323 | 1.0 | 5.0 | 0.00 | 0.00 | 0.00 | 46 | 1017.2 |
| 20260508184028 | 79 | 319 | 1.0 | 5.0 | 0.00 | 0.00 | 0.00 | 49 | 1017.3 |
| 20260508183526 | 78 | 281 | 1.0 | 3.0 | 0.00 | 0.00 | 0.00 | 44 | 1017.4 |
| 20260508183026 | 78 | 11 | 0.0 | 4.0 | 0.00 | 0.00 | 0.00 | 46 | 1017.5 |
| 20260508182524 | 77 | 258 | 1.0 | 4.0 | 0.00 | 0.00 | 0.00 | 42 | 1017.5 |
| 20260508182024 | 78 | 238 | 2.0 | 4.0 | 0.00 | 0.00 | 0.00 | 43 | 1017.6 |
| 20260508181539 | 78 | 283 | 0.0 | 5.0 | 0.00 | 0.00 | 0.00 | 42 | 1017.5 |
| 20260508181022 | 78 | 321 | 0.0 | 5.0 | 0.00 | 0.00 | 0.00 | 42 | 1017.5 |